,,PA_Meas_PMT16A,,PR_Meas_QMR101_102,,RH_Meas_QMH101,,SR_Meas_QMS101,,TA_Meas_QMH101,,GenWind,,GenWind,
time,status,PA,status,PR,status,RH,status,SR,status,TA,status,DirAvg,status,SpdAvg,
2014-02-09, 00:00:04,VALID,915.718,VALID,0,VALID,92.5254,VALID,0,VALID,18.5344,VALID,353,VALID,0.00195313,
2014-02-09, 00:01:04,VALID,915.721,VALID,0,VALID,92.7007,VALID,0.107441,VALID,18.5344,VALID,353,VALID,0.355469,
2014-02-09, 00:02:04,VALID,915.68,VALID,0,VALID,92.8303,VALID,0,VALID,18.5539,VALID,353,VALID,0.549219,
2014-02-09, 00:03:04,VALID,915.699,VALID,0,VALID,92.8456,VALID,0,VALID,18.5539,VALID,353,VALID,0.425391,
2014-02-09, 00:04:04,VALID,915.684,VALID,0,VALID,93.1734,VALID,0,VALID,18.5734,VALID,346,VALID,0.831641,
2014-02-09, 00:05:04,VALID,915.695,VALID,0,VALID,92.9752,VALID,0,VALID,18.5929,VALID,346,VALID,0.422656,
2014-02-09, 00:06:04,VALID,915.651,VALID,0,VALID,92.8151,VALID,0,VALID,18.6124,VALID,337,VALID,0.630078,
2014-02-09, 00:07:04,VALID,915.638,VALID,0,VALID,92.838,VALID,0,VALID,18.6708,VALID,294,VALID,0.0535156,
2014-02-09, 00:08:04,VALID,915.62,VALID,0,VALID,91.9841,VALID,0,VALID,18.6124,VALID,307,VALID,0.516016,
2014-02-09, 00:09:04,VALID,915.624,VALID,0,VALID,91.8698,VALID,0,VALID,18.6124,VALID,307,VALID,0.258203,
2014-02-09, 00:10:04,VALID,915.626,VALID,0,VALID,92.3272,VALID,0,VALID,18.6319,VALID,307,VALID,0.252344,
2014-02-09, 00:11:04,VALID,915.609,VALID,0,VALID,91.0465,VALID,0,VALID,18.5539,VALID,307,VALID,0.530469,
2014-02-09, 00:12:04,VALID,915.594,VALID,0,VALID,91.5572,VALID,0,VALID,18.5929,VALID,307,VALID,0.596094,
2014-02-09, 00:13:04,VALID,915.593,VALID,0,VALID,91.9231,VALID,0,VALID,18.6528,VALID,307,VALID,0,
2014-02-09, 00:14:04,VALID,915.585,VALID,0,VALID,92.0375,VALID,0,VALID,18.6513,VALID,307,VALID,0.196094,
2014-02-09, 00:15:04,VALID,915.575,VALID,0,VALID,91.946,VALID,0,VALID,18.6708,VALID,307,VALID,0,
2014-02-09, 00:16:04,VALID,915.569,VALID,0,VALID,91.3285,VALID,0,VALID,18.6513,VALID,307,VALID,0,
2014-02-09, 00:17:04,VALID,915.558,VALID,0,VALID,91.3895,VALID,0,VALID,18.6513,VALID,307,VALID,0.154297,
2014-02-09, 00:18:04,VALID,915.57,VALID,0,VALID,91.4581,VALID,0,VALID,18.6513,VALID,307,VALID,0.252344,
2014-02-09, 00:19:04,VALID,915.55,VALID,0,VALID,91.2599,VALID,0,VALID,18.6319,VALID,307,VALID,0.232031,
2014-02-09, 00:20:04,VALID,915.537,VALID,0,VALID,91.3285,VALID,0,VALID,18.6124,VALID,307,VALID,0.202734,
2014-02-09, 00:21:04,VALID,915.53,VALID,0,VALID,91.5801,VALID,0,VALID,18.5929,VALID,307,VALID,0.325,
2014-02-09, 00:22:04,VALID,915.506,VALID,0,VALID,91.7859,VALID,0,VALID,18.5344,VALID,307,VALID,0.174609,
2014-02-09, 00:23:04,VALID,915.469,VALID,0,VALID,91.7554,VALID,0,VALID,18.4954,VALID,307,VALID,0,
2014-02-09, 00:24:04,VALID,915.467,VALID,0,VALID,91.7783,VALID,0,VALID,18.4369,VALID,307,VALID,0,
2014-02-09, 00:25:04,VALID,915.473,VALID,0,VALID,91.9155,VALID,0,VALID,18.4174,VALID,307,VALID,0,
2014-02-09, 00:26:04,VALID,915.448,VALID,0,VALID,92.0985,VALID,0,VALID,18.4383,VALID,307,VALID,0,
2014-02-09, 00:27:04,VALID,915.452,VALID,0,VALID,92.0451,VALID,0,VALID,18.3784,VALID,307,VALID,0,
2014-02-09, 00:28:04,VALID,915.439,VALID,0,VALID,92.1061,VALID,0,VALID,18.3589,VALID,307,VALID,0,
2014-02-09, 00:29:04,VALID,915.418,VALID,0,VALID,92.251,VALID,0,VALID,18.3784,VALID,307,VALID,0,
2014-02-09, 00:30:04,VALID,915.414,VALID,0,VALID,92.1747,VALID,0,VALID,18.3784,VALID,307,VALID,0,
2014-02-09, 00:31:04,VALID,915.427,VALID,0,VALID,92.2662,VALID,0,VALID,18.4369,VALID,307,VALID,0,
2014-02-09, 00:32:04,VALID,915.373,VALID,0,VALID,92.2128,VALID,0,VALID,18.4578,VALID,307,VALID,0,
2014-02-09, 00:33:04,VALID,915.383,VALID,0,VALID,92.0985,VALID,0,VALID,18.4369,VALID,307,VALID,0,
2014-02-09, 00:34:04,VALID,915.401,VALID,0,VALID,91.946,VALID,0,VALID,18.4759,VALID,307,VALID,0,
2014-02-09, 00:35:04,VALID,915.333,VALID,0,VALID,91.2904,VALID,0,VALID,18.4759,VALID,307,VALID,0,
2014-02-09, 00:36:04,VALID,915.358,VALID,0,VALID,90.7873,VALID,0,VALID,18.4759,VALID,307,VALID,0,
2014-02-09, 00:37:04,VALID,915.341,VALID,0,VALID,90.5357,VALID,0,VALID,18.4759,VALID,307,VALID,0,
2014-02-09, 00:38:04,VALID,915.32,VALID,0,VALID,90.7034,VALID,0,VALID,18.5149,VALID,307,VALID,0,
2014-02-09, 00:39:04,VALID,915.304,VALID,0,VALID,90.185,VALID,0,VALID,18.4954,VALID,307,VALID,0,
2014-02-09, 00:40:04,VALID,915.262,VALID,0,VALID,89.9411,VALID,0,VALID,18.4759,VALID,307,VALID,0,
2014-02-09, 00:41:04,VALID,915.208,VALID,0,VALID,89.72,VALID,0,VALID,18.4954,VALID,307,VALID,0,
2014-02-09, 00:42:04,VALID,915.209,VALID,0,VALID,89.7886,VALID,0,VALID,18.4759,VALID,307,VALID,0,
2014-02-09, 00:43:04,VALID,915.159,VALID,0,VALID,90.0859,VALID,0,VALID,18.4174,VALID,307,VALID,0,
2014-02-09, 00:44:04,VALID,915.183,VALID,0,VALID,90.7339,VALID,0,VALID,18.3589,VALID,307,VALID,0,
2014-02-09, 00:45:04,VALID,915.151,VALID,0,VALID,90.2689,VALID,0,VALID,18.2433,VALID,307,VALID,0,
2014-02-09, 00:46:04,VALID,915.127,VALID,0,VALID,90.5891,VALID,0,VALID,18.086,VALID,307,VALID,0.617969,
2014-02-09, 00:47:04,VALID,915.112,VALID,0,VALID,91.603,VALID,0,VALID,18.008,VALID,307,VALID,0.735547,
2014-02-09, 00:48:04,VALID,915.106,VALID,0,VALID,92.8989,VALID,0,VALID,18.0679,VALID,307,VALID,0.802734,
2014-02-09, 00:49:04,VALID,915.099,VALID,0,VALID,93.0667,VALID,0,VALID,18.0275,VALID,307,VALID,0.447656,
2014-02-09, 00:50:04,VALID,915.1,VALID,0,VALID,93.2344,VALID,0,VALID,18.047,VALID,307,VALID,0.348828,
2014-02-09, 00:51:04,VALID,915.092,VALID,0,VALID,93.4555,VALID,0,VALID,18.1069,VALID,307,VALID,0.371875,
2014-02-09, 00:52:04,VALID,915.08,VALID,0,VALID,93.7909,VALID,0,VALID,18.1069,VALID,307,VALID,0.474219,
2014-02-09, 00:53:04,VALID,915.081,VALID,0,VALID,93.8443,VALID,0,VALID,18.1055,VALID,307,VALID,0.326562,
2014-02-09, 00:54:04,VALID,915.083,VALID,0,VALID,93.3411,VALID,0,VALID,18.086,VALID,307,VALID,0.275,
2014-02-09, 00:55:04,VALID,915.077,VALID,0,VALID,93.1429,VALID,0,VALID,18.047,VALID,307,VALID,0.610547,
2014-02-09, 00:56:04,VALID,915.024,VALID,0,VALID,92.9904,VALID,0,VALID,17.9899,VALID,307,VALID,0.835156,
2014-02-09, 00:57:04,VALID,915.073,VALID,0,VALID,93.3411,VALID,0,VALID,17.9509,VALID,307,VALID,0.666797,
2014-02-09, 00:58:04,VALID,915.069,VALID,0,VALID,93.9357,VALID,0,VALID,17.9301,VALID,307,VALID,0.549609,
2014-02-09, 00:59:04,VALID,915.035,VALID,0,VALID,93.951,VALID,0,VALID,17.8716,VALID,307,VALID,0.317187,
2014-02-09, 01:00:04,VALID,915.024,VALID,0,VALID,94.2559,VALID,0,VALID,17.8521,VALID,307,VALID,0.473047,
2014-02-09, 01:01:04,VALID,915.039,VALID,0,VALID,94.4999,VALID,0,VALID,17.8521,VALID,307,VALID,0,
2014-02-09, 01:02:04,VALID,914.996,VALID,0,VALID,94.6066,VALID,0,VALID,17.8521,VALID,307,VALID,0,
2014-02-09, 01:03:04,VALID,914.971,VALID,0,VALID,94.7362,VALID,0,VALID,17.8521,VALID,307,VALID,0,
2014-02-09, 01:04:04,VALID,914.979,VALID,0,VALID,94.8277,VALID,0,VALID,17.8716,VALID,307,VALID,0.0304688,
2014-02-09, 01:05:04,VALID,914.947,VALID,0,VALID,94.9344,VALID,0,VALID,17.8911,VALID,307,VALID,0.197266,
2014-02-09, 01:06:04,VALID,914.94,VALID,0,VALID,95.0335,VALID,0,VALID,17.8911,VALID,307,VALID,0.339844,
2014-02-09, 01:07:04,VALID,914.923,VALID,0,VALID,95.1707,VALID,0,VALID,17.9314,VALID,307,VALID,0.506641,
2014-02-09, 01:08:04,VALID,914.93,VALID,0,VALID,95.2012,VALID,0,VALID,17.9106,VALID,307,VALID,0.298828,
2014-02-09, 01:09:04,VALID,914.9,VALID,0,VALID,95.247,VALID,0,VALID,17.9314,VALID,307,VALID,0.348828,
2014-02-09, 01:10:04,VALID,914.884,VALID,0,VALID,95.125,VALID,0,VALID,17.873,VALID,307,VALID,0.442578,
2014-02-09, 01:11:04,VALID,914.841,VALID,0,VALID,94.9878,VALID,0,VALID,17.8535,VALID,307,VALID,0,
2014-02-09, 01:12:04,VALID,914.848,VALID,0,VALID,95.2241,VALID,0,VALID,17.9106,VALID,307,VALID,0.342187,
2014-02-09, 01:13:04,VALID,914.829,VALID,0,VALID,95.3689,VALID,0,VALID,18.0094,VALID,305,VALID,0.439453,
2014-02-09, 01:14:04,VALID,914.823,VALID,0,VALID,95.2775,VALID,0,VALID,17.9704,VALID,305,VALID,0,
2014-02-09, 01:15:04,VALID,914.809,VALID,0,VALID,95.0106,VALID,0,VALID,17.9119,VALID,305,VALID,0.175781,
2014-02-09, 01:16:04,VALID,914.814,VALID,0,VALID,95.0183,VALID,0,VALID,17.8911,VALID,305,VALID,0,
2014-02-09, 01:17:04,VALID,914.809,VALID,0,VALID,94.66,VALID,0,VALID,17.834,VALID,305,VALID,0,
2014-02-09, 01:18:04,VALID,914.789,VALID,0,VALID,94.8505,VALID,0,VALID,17.8535,VALID,305,VALID,0.330078,
2014-02-09, 01:19:04,VALID,914.786,VALID,0,VALID,94.8963,VALID,0,VALID,17.873,VALID,305,VALID,0,
2014-02-09, 01:20:04,VALID,914.789,VALID,0,VALID,94.8887,VALID,0,VALID,17.8326,VALID,305,VALID,0,
2014-02-09, 01:21:04,VALID,914.792,VALID,0,VALID,94.9344,VALID,0,VALID,17.8521,VALID,305,VALID,0.367188,
2014-02-09, 01:22:04,VALID,914.783,VALID,0,VALID,94.9496,VALID,0,VALID,17.873,VALID,305,VALID,0.301172,
2014-02-09, 01:23:05,VALID,914.774,VALID,0,VALID,94.7057,VALID,0,VALID,17.8145,VALID,305,VALID,0.476563,
2014-02-09, 01:24:05,VALID,914.751,VALID,0,VALID,94.8353,VALID,0,VALID,17.834,VALID,307,VALID,0.512109,
2014-02-09, 01:25:05,VALID,914.723,VALID,0,VALID,94.9801,VALID,0,VALID,17.8535,VALID,307,VALID,0.451172,
2014-02-09, 01:26:05,VALID,914.69,VALID,0,VALID,94.9954,VALID,0,VALID,17.834,VALID,307,VALID,0.577734,
2014-02-09, 01:27:05,VALID,914.659,VALID,0,VALID,95.186,VALID,0,VALID,17.8535,VALID,307,VALID,0,
2014-02-09, 01:28:05,VALID,914.674,VALID,0,VALID,95.2317,VALID,0,VALID,17.873,VALID,307,VALID,0,
2014-02-09, 01:29:05,VALID,914.662,VALID,0,VALID,95.2088,VALID,0,VALID,17.873,VALID,307,VALID,0.591797,
2014-02-09, 01:30:05,VALID,914.683,VALID,0,VALID,95.1479,VALID,0,VALID,17.8716,VALID,306,VALID,0.475781,
2014-02-09, 01:31:05,VALID,914.654,VALID,0,VALID,95.0259,VALID,0,VALID,17.8911,VALID,306,VALID,0.570703,
2014-02-09, 01:32:05,VALID,914.651,VALID,0,VALID,94.7972,VALID,0,VALID,17.9119,VALID,302,VALID,0.0921875,
2014-02-09, 01:33:05,VALID,914.634,VALID,0,VALID,94.1187,VALID,0,VALID,17.7936,VALID,301,VALID,0.379297,
2014-02-09, 01:34:05,VALID,914.644,VALID,0,VALID,93.646,VALID,0,VALID,17.7547,VALID,303,VALID,0.611719,
2014-02-09, 01:35:05,VALID,914.646,VALID,0,VALID,94.1187,VALID,0,VALID,17.7352,VALID,304,VALID,0.430469,
2014-02-09, 01:36:05,VALID,914.61,VALID,0,VALID,94.3093,VALID,0,VALID,17.7352,VALID,304,VALID,0.283203,
2014-02-09, 01:37:05,VALID,914.619,VALID,0,VALID,94.4008,VALID,0,VALID,17.6962,VALID,307,VALID,0.431641,
2014-02-09, 01:38:05,VALID,914.638,VALID,0,VALID,94.5075,VALID,0,VALID,17.6962,VALID,307,VALID,0.065625,
2014-02-09, 01:39:05,VALID,914.644,VALID,0,VALID,94.5227,VALID,0,VALID,17.6962,VALID,307,VALID,0.145703,
2014-02-09, 01:40:05,VALID,914.649,VALID,0,VALID,94.4084,VALID,0,VALID,17.6767,VALID,307,VALID,0.449609,
2014-02-09, 01:41:05,VALID,914.669,VALID,0,VALID,94.2712,VALID,0.107441,VALID,17.6572,VALID,307,VALID,0.130078,
2014-02-09, 01:42:05,VALID,914.677,VALID,0,VALID,94.1873,VALID,0,VALID,17.6377,VALID,307,VALID,0.0488281,
2014-02-09, 01:43:05,VALID,914.66,VALID,0,VALID,94.0882,VALID,0.107441,VALID,17.6572,VALID,307,VALID,0.466406,
2014-02-09, 01:44:05,VALID,914.671,VALID,0,VALID,93.9434,VALID,0.107441,VALID,17.6377,VALID,307,VALID,0.428516,
2014-02-09, 01:45:05,VALID,914.682,VALID,0,VALID,93.5012,VALID,0,VALID,17.5987,VALID,307,VALID,0.663281,
2014-02-09, 01:46:05,VALID,914.667,VALID,0,VALID,93.4326,VALID,0,VALID,17.5598,VALID,354,VALID,1.30664,
2014-02-09, 01:47:05,VALID,914.633,VALID,0,VALID,93.5698,VALID,0,VALID,17.5403,VALID,33,VALID,1.49609,
2014-02-09, 01:48:05,VALID,914.629,VALID,0,VALID,92.8989,VALID,0,VALID,17.5598,VALID,30,VALID,1.09063,
2014-02-09, 01:49:05,VALID,914.64,VALID,0,VALID,92.6626,VALID,0,VALID,17.5403,VALID,3,VALID,0.416406,
2014-02-09, 01:50:05,VALID,914.627,VALID,0,VALID,92.9066,VALID,0.107441,VALID,17.5389,VALID,3,VALID,0.794531,
2014-02-09, 01:51:05,VALID,914.632,VALID,0,VALID,93.0895,VALID,0,VALID,17.5792,VALID,3,VALID,0.532031,
2014-02-09, 01:52:05,VALID,914.641,VALID,0,VALID,93.6155,VALID,0,VALID,17.6182,VALID,3,VALID,0.393359,
2014-02-09, 01:53:05,VALID,914.574,VALID,0,VALID,93.1353,VALID,0.107441,VALID,17.5987,VALID,3,VALID,0.310937,
2014-02-09, 01:54:05,VALID,914.586,VALID,0,VALID,93.0438,VALID,0.107441,VALID,17.5598,VALID,3,VALID,0.616406,
2014-02-09, 01:55:05,VALID,914.586,VALID,0,VALID,94.0806,VALID,0,VALID,17.5987,VALID,3,VALID,0.869531,
2014-02-09, 01:56:05,VALID,914.588,VALID,0,VALID,94.5456,VALID,0.107441,VALID,17.6767,VALID,3,VALID,0.392578,
2014-02-09, 01:57:05,VALID,914.536,VALID,0,VALID,94.8277,VALID,0.107441,VALID,17.7157,VALID,3,VALID,0.13125,
2014-02-09, 01:58:05,VALID,914.558,VALID,0,VALID,94.9573,VALID,0,VALID,17.7157,VALID,3,VALID,0.194531,
2014-02-09, 01:59:05,VALID,914.539,VALID,0,VALID,95.0488,VALID,0.107441,VALID,17.7352,VALID,3,VALID,0,
2014-02-09, 02:00:05,VALID,914.498,VALID,0,VALID,94.8734,VALID,0.107441,VALID,17.6572,VALID,3,VALID,0,
2014-02-09, 02:01:05,VALID,914.503,VALID,0,VALID,94.8124,VALID,0.107441,VALID,17.6169,VALID,3,VALID,0.842578,
2014-02-09, 02:02:05,VALID,914.506,VALID,0,VALID,94.6981,VALID,0,VALID,17.6182,VALID,3,VALID,0.177344,
2014-02-09, 02:03:05,VALID,914.54,VALID,0,VALID,94.4846,VALID,0,VALID,17.6196,VALID,3,VALID,0.266797,
2014-02-09, 02:04:05,VALID,914.512,VALID,0,VALID,94.3169,VALID,0,VALID,17.6001,VALID,3,VALID,0.00742187,
2014-02-09, 02:05:05,VALID,914.515,VALID,0,VALID,94.3017,VALID,0,VALID,17.6391,VALID,3,VALID,0.202344,
2014-02-09, 02:06:05,VALID,914.53,VALID,0,VALID,94.4389,VALID,0,VALID,17.678,VALID,3,VALID,0.00195313,
2014-02-09, 02:07:05,VALID,914.544,VALID,0,VALID,94.2712,VALID,0,VALID,17.6196,VALID,3,VALID,0.00117188,
2014-02-09, 02:08:05,VALID,914.521,VALID,0,VALID,94.2407,VALID,0,VALID,17.6001,VALID,3,VALID,0.314063,
2014-02-09, 02:09:05,VALID,914.488,VALID,0,VALID,94.0806,VALID,0,VALID,17.5806,VALID,3,VALID,0.683203,
2014-02-09, 02:10:05,VALID,914.524,VALID,0,VALID,93.829,VALID,0,VALID,17.5611,VALID,5,VALID,0.73125,
2014-02-09, 02:11:05,VALID,914.503,VALID,0,VALID,93.8214,VALID,0,VALID,17.6001,VALID,4,VALID,0.543359,
2014-02-09, 02:12:05,VALID,914.517,VALID,0,VALID,93.4173,VALID,0,VALID,17.6391,VALID,4,VALID,0.242188,
2014-02-09, 02:13:05,VALID,914.499,VALID,0,VALID,92.8456,VALID,0,VALID,17.6377,VALID,4,VALID,0.245312,
2014-02-09, 02:14:05,VALID,914.516,VALID,0,VALID,92.5635,VALID,0,VALID,17.6585,VALID,4,VALID,0.00195313,
2014-02-09, 02:15:05,VALID,914.49,VALID,0,VALID,92.0223,VALID,0,VALID,17.6391,VALID,4,VALID,0,
2014-02-09, 02:16:05,VALID,914.497,VALID,0,VALID,92.129,VALID,0,VALID,17.5987,VALID,4,VALID,0,
2014-02-09, 02:17:05,VALID,914.504,VALID,0,VALID,92.1595,VALID,0,VALID,17.6196,VALID,4,VALID,0,
2014-02-09, 02:18:05,VALID,914.503,VALID,0,VALID,91.9841,VALID,0,VALID,17.6001,VALID,4,VALID,0,
2014-02-09, 02:19:05,VALID,914.475,VALID,0,VALID,91.3895,VALID,0,VALID,17.5403,VALID,4,VALID,0,
2014-02-09, 02:20:05,VALID,914.464,VALID,0,VALID,92.1214,VALID,0,VALID,17.6001,VALID,4,VALID,0,
2014-02-09, 02:21:05,VALID,914.451,VALID,0,VALID,92.1442,VALID,0,VALID,17.6391,VALID,4,VALID,0,
2014-02-09, 02:22:05,VALID,914.43,VALID,0,VALID,92.1214,VALID,0,VALID,17.6391,VALID,4,VALID,0,
2014-02-09, 02:23:05,VALID,914.444,VALID,0,VALID,91.9841,VALID,0,VALID,17.6377,VALID,4,VALID,0.10625,
2014-02-09, 02:24:05,VALID,914.427,VALID,0,VALID,92.1442,VALID,0,VALID,17.678,VALID,4,VALID,0.554688,
2014-02-09, 02:25:05,VALID,914.407,VALID,0,VALID,91.885,VALID,0,VALID,17.6975,VALID,4,VALID,0.331641,
2014-02-09, 02:26:05,VALID,914.393,VALID,0,VALID,91.7859,VALID,0,VALID,17.678,VALID,4,VALID,0.434375,
2014-02-09, 02:27:05,VALID,914.376,VALID,0,VALID,91.6868,VALID,0,VALID,17.678,VALID,4,VALID,0.542188,
2014-02-09, 02:28:05,VALID,914.386,VALID,0,VALID,91.603,VALID,0,VALID,17.6196,VALID,14,VALID,0.897266,
2014-02-09, 02:29:05,VALID,914.383,VALID,0,VALID,91.7021,VALID,0,VALID,17.6001,VALID,13,VALID,0.664453,
2014-02-09, 02:30:05,VALID,914.363,VALID,0,VALID,91.9155,VALID,0,VALID,17.6001,VALID,14,VALID,0.819531,
2014-02-09, 02:31:05,VALID,914.344,VALID,0,VALID,91.5877,VALID,0,VALID,17.5806,VALID,14,VALID,0.741797,
2014-02-09, 02:32:05,VALID,914.356,VALID,0,VALID,91.6563,VALID,0,VALID,17.5013,VALID,22,VALID,1.08438,
2014-02-09, 02:33:05,VALID,914.37,VALID,0,VALID,91.8774,VALID,0,VALID,17.5221,VALID,24,VALID,0.970312,
2014-02-09, 02:34:05,VALID,914.366,VALID,0,VALID,92.0451,VALID,0.107441,VALID,17.5013,VALID,33,VALID,1.11406,
2014-02-09, 02:35:05,VALID,914.375,VALID,0,VALID,92.1519,VALID,0,VALID,17.5013,VALID,35,VALID,0.930859,
2014-02-09, 02:36:05,VALID,914.381,VALID,0,VALID,91.946,VALID,0,VALID,17.4818,VALID,35,VALID,0.691016,
2014-02-09, 02:37:05,VALID,914.34,VALID,0,VALID,92.1366,VALID,0,VALID,17.5013,VALID,35,VALID,0.703906,
2014-02-09, 02:38:05,VALID,914.34,VALID,0,VALID,92.4873,VALID,0,VALID,17.5208,VALID,35,VALID,0.796875,
2014-02-09, 02:39:05,VALID,914.343,VALID,0,VALID,92.5178,VALID,0,VALID,17.5403,VALID,35,VALID,0.694141,
2014-02-09, 02:40:05,VALID,914.329,VALID,0,VALID,92.5254,VALID,0,VALID,17.5792,VALID,35,VALID,0.941016,
2014-02-09, 02:41:05,VALID,914.322,VALID,0,VALID,92.3196,VALID,0,VALID,17.5779,VALID,35,VALID,0.866016,
2014-02-09, 02:42:05,VALID,914.342,VALID,0,VALID,92.4034,VALID,0,VALID,17.5987,VALID,35,VALID,0.645312,
2014-02-09, 02:43:05,VALID,914.324,VALID,0,VALID,92.5025,VALID,0,VALID,17.6169,VALID,35,VALID,0.785156,
2014-02-09, 02:44:05,VALID,914.3,VALID,0,VALID,92.5178,VALID,0.107441,VALID,17.6377,VALID,35,VALID,0.873828,
2014-02-09, 02:45:05,VALID,914.335,VALID,0,VALID,92.411,VALID,0.107441,VALID,17.6962,VALID,35,VALID,0.817969,
2014-02-09, 02:46:05,VALID,914.291,VALID,0,VALID,92.777,VALID,0,VALID,17.7547,VALID,32,VALID,1.01406,
2014-02-09, 02:47:05,VALID,914.341,VALID,0,VALID,92.4339,VALID,0,VALID,17.8326,VALID,32,VALID,0.780078,
2014-02-09, 02:48:05,VALID,914.294,VALID,0,VALID,92.4263,VALID,0,VALID,17.8911,VALID,32,VALID,1.21016,
2014-02-09, 02:49:05,VALID,914.285,VALID,0,VALID,92.1747,VALID,0,VALID,17.9886,VALID,32,VALID,0.974219,
2014-02-09, 02:50:05,VALID,914.272,VALID,0,VALID,91.9613,VALID,0,VALID,18.0665,VALID,32,VALID,0.928516,
2014-02-09, 02:51:05,VALID,914.258,VALID,0,VALID,91.885,VALID,0,VALID,18.1654,VALID,32,VALID,0.926953,
2014-02-09, 02:52:05,VALID,914.222,VALID,0,VALID,91.5953,VALID,0,VALID,18.2225,VALID,32,VALID,0.798437,
2014-02-09, 02:53:05,VALID,914.247,VALID,0,VALID,91.1761,VALID,0,VALID,18.2225,VALID,32,VALID,0.733203,
2014-02-09, 02:54:05,VALID,914.223,VALID,0,VALID,91.5191,VALID,0,VALID,18.2823,VALID,32,VALID,0.985156,
2014-02-09, 02:55:05,VALID,914.207,VALID,0,VALID,91.4276,VALID,0,VALID,18.3004,VALID,30,VALID,0.817187,
2014-02-09, 02:56:05,VALID,914.18,VALID,0,VALID,91.6868,VALID,0,VALID,18.3798,VALID,30,VALID,1.0707,
2014-02-09, 02:57:05,VALID,914.185,VALID,0,VALID,91.6182,VALID,0,VALID,18.4174,VALID,30,VALID,0.76875,
2014-02-09, 02:58:05,VALID,914.19,VALID,0,VALID,91.359,VALID,0.107441,VALID,18.4369,VALID,30,VALID,0.783984,
2014-02-09, 02:59:05,VALID,914.162,VALID,0,VALID,91.3971,VALID,0,VALID,18.4564,VALID,30,VALID,0.476953,
2014-02-09, 03:00:05,VALID,914.14,VALID,0,VALID,91.2523,VALID,0,VALID,18.4564,VALID,30,VALID,0.544141,
2014-02-09, 03:01:05,VALID,914.13,VALID,0,VALID,91.0083,VALID,0,VALID,18.4174,VALID,30,VALID,0.458203,
2014-02-09, 03:02:05,VALID,914.169,VALID,0,VALID,90.5662,VALID,0,VALID,18.3589,VALID,30,VALID,0,
2014-02-09, 03:03:05,VALID,914.139,VALID,0,VALID,90.4518,VALID,0,VALID,18.3408,VALID,30,VALID,0,
2014-02-09, 03:04:05,VALID,914.138,VALID,0,VALID,90.6195,VALID,0,VALID,18.3018,VALID,30,VALID,0.00078125,
2014-02-09, 03:05:05,VALID,914.113,VALID,0,VALID,91.2752,VALID,0,VALID,18.3018,VALID,31,VALID,0.584766,
2014-02-09, 03:06:05,VALID,914.097,VALID,0,VALID,91.6945,VALID,0,VALID,18.2823,VALID,36,VALID,1.16758,
2014-02-09, 03:07:05,VALID,914.09,VALID,0,VALID,91.4657,VALID,0,VALID,18.3018,VALID,35,VALID,0.759766,
2014-02-09, 03:08:05,VALID,914.134,VALID,0,VALID,90.5128,VALID,0,VALID,18.2433,VALID,35,VALID,0.256641,
2014-02-09, 03:09:05,VALID,914.079,VALID,0,VALID,90.8483,VALID,0,VALID,18.1459,VALID,34,VALID,0.527734,
2014-02-09, 03:10:05,VALID,914.068,VALID,0,VALID,91.2447,VALID,0,VALID,18.1264,VALID,13,VALID,0,
2014-02-09, 03:11:05,VALID,914.079,VALID,0,VALID,90.5357,VALID,0,VALID,18.0094,VALID,13,VALID,0,
2014-02-09, 03:12:05,VALID,914.046,VALID,0,VALID,91.2828,VALID,0,VALID,17.9704,VALID,13,VALID,0.533984,
2014-02-09, 03:13:05,VALID,914.042,VALID,0,VALID,91.4352,VALID,0,VALID,17.9106,VALID,13,VALID,0.164844,
2014-02-09, 03:14:05,VALID,914.059,VALID,0,VALID,91.9384,VALID,0,VALID,17.9119,VALID,13,VALID,0.282031,
2014-02-09, 03:15:05,VALID,914.035,VALID,0,VALID,93.2649,VALID,0,VALID,17.9314,VALID,4,VALID,1.20742,
2014-02-09, 03:16:05,VALID,914.028,VALID,0,VALID,94.2026,VALID,0,VALID,18.0874,VALID,4,VALID,0.574219,
2014-02-09, 03:17:05,VALID,914.049,VALID,0,VALID,94.3931,VALID,0,VALID,18.2044,VALID,4,VALID,0.506641,
2014-02-09, 03:18:05,VALID,914.043,VALID,0,VALID,94.1187,VALID,0.107441,VALID,18.242,VALID,3,VALID,0.592188,
2014-02-09, 03:19:05,VALID,914.082,VALID,0,VALID,93.0667,VALID,0,VALID,18.242,VALID,3,VALID,0.367578,
2014-02-09, 03:20:05,VALID,914.046,VALID,0,VALID,92.6093,VALID,0,VALID,18.2225,VALID,3,VALID,0.00859375,
2014-02-09, 03:21:05,VALID,914.058,VALID,0,VALID,93.5774,VALID,0,VALID,18.3394,VALID,4,VALID,0.734766,
2014-02-09, 03:22:05,VALID,914.065,VALID,0,VALID,92.1823,VALID,0,VALID,18.3004,VALID,6,VALID,0.408203,
2014-02-09, 03:23:05,VALID,914.017,VALID,0,VALID,91.542,VALID,0,VALID,18.242,VALID,6,VALID,0.309375,
2014-02-09, 03:24:05,VALID,914.043,VALID,0,VALID,91.7935,VALID,0,VALID,18.2225,VALID,6,VALID,0,
2014-02-09, 03:25:05,VALID,914.028,VALID,0,VALID,91.9231,VALID,0,VALID,18.164,VALID,6,VALID,0.116016,
2014-02-09, 03:26:05,VALID,914.031,VALID,0,VALID,92.3501,VALID,0,VALID,18.1445,VALID,6,VALID,0.142578,
2014-02-09, 03:27:05,VALID,914.022,VALID,0,VALID,92.1137,VALID,0,VALID,18.1055,VALID,4,VALID,0.200781,
2014-02-09, 03:28:05,VALID,914.003,VALID,0,VALID,92.1519,VALID,0,VALID,18.047,VALID,4,VALID,0.324609,
2014-02-09, 03:29:05,VALID,913.99,VALID,0,VALID,92.4339,VALID,0,VALID,18.047,VALID,4,VALID,0.430469,
2014-02-09, 03:30:05,VALID,913.983,VALID,0,VALID,93.0209,VALID,0,VALID,18.0665,VALID,5,VALID,0.569531,
2014-02-09, 03:31:05,VALID,913.969,VALID,0,VALID,93.829,VALID,0,VALID,18.086,VALID,5,VALID,0.406641,
2014-02-09, 03:32:05,VALID,913.983,VALID,0,VALID,94.1721,VALID,0,VALID,18.125,VALID,5,VALID,0.540234,
2014-02-09, 03:33:05,VALID,913.983,VALID,0,VALID,94.0958,VALID,0,VALID,18.1055,VALID,12,VALID,0.775391,
2014-02-09, 03:34:05,VALID,913.999,VALID,0,VALID,94.2635,VALID,0,VALID,18.1236,VALID,12,VALID,0.417969,
2014-02-09, 03:35:05,VALID,914.012,VALID,0,VALID,94.3093,VALID,0.107441,VALID,18.164,VALID,12,VALID,0.351563,
2014-02-09, 03:36:05,VALID,914.029,VALID,0,VALID,94.0958,VALID,0,VALID,18.125,VALID,12,VALID,0,
2014-02-09, 03:37:05,VALID,914.067,VALID,0,VALID,93.9281,VALID,0.107441,VALID,18.125,VALID,12,VALID,0.0941406,
2014-02-09, 03:38:05,VALID,914.062,VALID,0,VALID,93.8214,VALID,0,VALID,18.125,VALID,12,VALID,0,
2014-02-09, 03:39:05,VALID,914.033,VALID,0,VALID,93.9357,VALID,0,VALID,18.1041,VALID,12,VALID,0,
2014-02-09, 03:40:05,VALID,914.033,VALID,0,VALID,93.829,VALID,0,VALID,18.125,VALID,12,VALID,0,
2014-02-09, 03:41:05,VALID,914.052,VALID,0,VALID,94.1492,VALID,0,VALID,18.1849,VALID,12,VALID,0.277344,
2014-02-09, 03:42:05,VALID,914.057,VALID,0,VALID,93.9129,VALID,0.107441,VALID,18.1445,VALID,12,VALID,0.405859,
2014-02-09, 03:43:05,VALID,914.062,VALID,0,VALID,94.0882,VALID,0,VALID,18.164,VALID,12,VALID,0.345313,
2014-02-09, 03:44:05,VALID,914.063,VALID,0,VALID,94.2635,VALID,0,VALID,18.2225,VALID,12,VALID,0.303906,
2014-02-09, 03:45:05,VALID,914.05,VALID,0,VALID,94.2178,VALID,0.107441,VALID,18.2016,VALID,12,VALID,0.172656,
2014-02-09, 03:46:05,VALID,914.044,VALID,0,VALID,93.9738,VALID,0.107441,VALID,18.1835,VALID,12,VALID,0,
2014-02-09, 03:47:05,VALID,914.079,VALID,0,VALID,93.89,VALID,0,VALID,18.164,VALID,12,VALID,0,
2014-02-09, 03:48:05,VALID,914.06,VALID,0,VALID,93.7147,VALID,0,VALID,18.1445,VALID,12,VALID,0,